Tracking 28790 objects as of 19-Apr-2024
HD Live streaming from Space Station
objects crossing your sky now

STARLINK-2745

Track STARLINK-2745 now!
10-day predictions
STARLINK-2745 is classified as:


NORAD ID: 48671
Int'l Code: 2021-044AK
Perigee: 553.4 km
Apogee: 555.4 km
Inclination: 53.1 °
Period: 95.6 minutes
Semi major axis: 6925 km
RCS: Unknown
Launch date: May 26, 2021
Source: United States (US)
Launch site: AIR FORCE EASTERN TEST RANGE (AFETR)
Your satellite tracking list
Your tracking list is empty




NASA's NSSDC Master Catalog

Two Line Element Set (TLE):
1 48671U 21044AK  24110.01455927  .00003972  00000-0  28544-3 0  9995
2 48671  53.0552 327.6736 0001474  95.6745 264.4412 15.06391501160735
Source of the keplerian elements: AFSPC